Погода в Рудничном

Россия / Кемеровская область (Кузбасс)     56°04′58″N   86°15′12″E
темп.,
°C
ветер,
м/с
пор.,
м/с
влажн.,
%
обл.,
%
осадки,
мм/ч
давл.,
гПа
погр.,
м
21 апреля, ср
ср2101:00−7ююз2784100 0.0 1024219
04:00−7ю3884100 0.0 1023334
07:00−6ю3782100 0.0 1023299
10:00−3ю4663100 0.0 10231194
13:00−1ююз3559100 0.1 10231492
16:000ю2255100 0.2 10241402
19:00−1в2267100 0.6 1026785
22:00−4всв268794 0.3 1029130
22 апреля, чт
чт2201:00−7св13925 0.3 103265
04:00−8ссв24945 0.0 103467
07:00−6ссв27915 0.0 1037209
10:00−1ссв466841 0.0 10391043
13:00+1ссв4657100 0.1 10401584
16:00+2ссв4660100 0.1 10411468
19:00+1ссв467680 0.5 1043898
22:00−3ссв28945 0.0 1045202
23 апреля, пт
пт2301:00−4ссв28965 0.0 1046188
04:00−5ссв279936 0.0 1046172
07:00−4св279647 0.0 1046228
10:00+1св477570 0.0 1046953
13:00+4св5755100 0.1 10441620
16:00+5св4650100 0.0 10431823
19:00+3ссв476565 0.1 1043716
22:00−1св311835 0.0 1043294
24 апреля, сб
сб2401:00−2ссв210915 0.0 1042259
04:00−2ссв31092100 0.0 1040273
07:00−1ссв41184100 0.0 1038446
10:00+2ссв51072100 0.0 1036721
13:00+5ссв5760100 0.0 10341278
16:00+6ссв4756100 0.0 10321552
19:00+4ссв4869100 0.1 1032557
22:000ссв2290100 0.1 103238
25 апреля, вс
вс2501:000с229399 0.1 103224
04:00−1с219590 0.0 103220
07:000с139193 0.0 103298
10:00+5с127198 0.0 1032565
13:00+8ссз125383 0.1 10311483
16:00+7ссз335596 0.1 10301357
19:00+6ссз246579 0.1 1030483
22:00+2зсз118212 0.0 103110